W7KKE-3 Weather Reports


Display with metric or nautical units.
time (UTC)temp
F
wind
direction
speed
MPH
gust
MPH
rain 1hr
in
rain 24hr
in
rain mn
in
humidity
%
barometer
mb
20191206000040 53 121 0.0 7.0 0.00 0.00 0.00 68 1013.9
20191205235540 53 58 1.0 7.0 0.00 0.00 0.00 68 1014.0
20191205235041 53 121 1.0 5.0 0.00 0.00 0.00 69 1014.1
20191205234541 54 169 2.0 5.0 0.00 0.00 0.00 68 1014.2
20191205234041 54 126 1.0 7.0 0.00 0.00 0.00 68 1014.2
20191205233541 54 149 0.0 7.0 0.00 0.00 0.00 70 1014.4
20191205233042 54 67 1.0 7.0 0.00 0.00 0.00 71 1014.4
20191205232540 54 141 0.0 5.0 0.00 0.00 0.00 70 1014.6
20191205232041 54 145 0.0 5.0 0.00 0.00 0.00 68 1014.6
20191205231540 54 162 2.0 7.0 0.00 0.00 0.00 68 1014.7
20191205231041 54 96 1.0 7.0 0.00 0.00 0.00 68 1014.6
20191205230541 54 204 1.0 7.0 0.00 0.00 0.00 68 1014.7
20191205230040 54 120 2.0 7.0 0.00 0.00 0.00 68 1014.7
20191205225540 54 130 0.0 9.0 0.00 0.00 0.00 68 1014.7
20191205225041 54 128 0.0 9.0 0.00 0.00 0.00 68 1014.6
20191205223541 53 210 1.0 11.0 0.00 0.00 0.00 70 1014.7
20191205223040 53 98 0.0 11.0 0.00 0.00 0.00 69 1014.8
20191205222540 53 131 1.0 11.0 0.00 0.00 0.00 68 1014.8
20191205222044 53 149 3.0 9.0 0.00 0.00 0.00 68 1014.9
20191205221540 53 61 1.0 7.0 0.00 0.00 0.00 70 1014.9
20191205221040 54 1 2.0 6.0 0.00 0.00 0.00 71 1015.0
20191205220541 53 156 0.0 5.0 0.00 0.00 0.00 69 1015.0
20191205215540 54 58 2.0 9.0 0.00 0.00 0.00 68 1015.1
20191205215041 54 130 3.0 9.0 0.00 0.00 0.00 68 1015.2
20191205213541 54 145 5.0 8.0 0.00 0.00 0.00 68 1015.3
20191205213040 54 113 2.0 7.0 0.00 0.00 0.00 68 1015.4
20191205212540 54 170 0.0 6.0 0.00 0.00 0.00 68 1015.4
20191205212041 54 127 1.0 4.0 0.00 0.00 0.00 69 1015.6
20191205210040 53 228 1.0 5.0 0.00 0.00 0.00 71 1015.8
20191205205541 53 289 0.0 4.0 0.00 0.00 0.00 71 1015.8
20191205205041 53 141 0.0 3.0 0.00 0.00 0.00 71 1015.9
20191205204540 53 46 0.0 6.0 0.00 0.00 0.00 71 1016.0
20191205204040 53 116 1.0 6.0 0.00 0.00 0.00 71 1016.0
20191205203541 53 134 1.0 6.0 0.00 0.00 0.00 72 1016.0
20191205202041 52 179 3.0 10.0 0.00 0.00 0.00 71 1016.2
20191205201540 52 128 0.0 10.0 0.00 0.00 0.00 72 1016.3
20191205200040 52 133 1.0 7.0 0.00 0.00 0.00 74 1016.5
20191205195540 52 128 0.0 8.0 0.00 0.00 0.00 73 1016.6
20191205195042 52 85 0.0 8.0 0.00 0.00 0.00 74 1016.7
20191205194541 51 93 1.0 8.0 0.00 0.00 0.00 74 1016.7
20191205194040 51 4 0.0 4.0 0.00 0.00 0.00 74 1016.7
20191205193541 51 123 0.0 8.0 0.00 0.00 0.00 74 1016.7
20191205193041 51 68 2.0 8.0 0.00 0.00 0.00 75 1016.7
20191205192540 51 109 0.0 8.0 0.00 0.00 0.00 74 1016.7
20191205192041 51 113 0.0 5.0 0.00 0.00 0.00 74 1016.7
20191205191540 51 110 1.0 5.0 0.00 0.00 0.00 74 1016.8
20191205191040 50 23 0.0 5.0 0.00 0.00 0.00 74 1016.8
20191205190541 50 130 2.0 7.0 0.00 0.00 0.00 75 1016.9
20191205190040 50 221 0.0 7.0 0.00 0.00 0.00 74 1017.0
20191205185541 50 176 2.0 7.0 0.00 0.00 0.00 74 1017.0
20191205185042 50 149 0.0 5.0 0.00 0.00 0.00 74 1017.0
20191205184541 50 106 1.0 5.0 0.00 0.00 0.00 74 1017.1
20191205184040 50 117 2.0 5.0 0.00 0.00 0.00 74 1017.1
20191205183541 50 114 0.0 4.0 0.00 0.00 0.00 74 1017.1
20191205183040 50 134 0.0 4.0 0.00 0.00 0.00 77 1017.1
20191205182540 50 98 1.0 4.0 0.00 0.00 0.00 74 1017.1
20191205182041 50 121 0.0 7.0 0.00 0.00 0.00 76 1017.1
20191205181540 50 105 1.0 7.0 0.00 0.00 0.00 76 1017.1
20191205181040 49 121 1.0 7.0 0.00 0.00 0.00 76 1017.0
20191205180040 49 89 0.0 6.0 0.00 0.00 0.00 77 1016.9
20191205175540 49 98 0.0 5.0 0.00 0.00 0.00 77 1016.7
20191205175041 49 114 0.0 5.0 0.00 0.00 0.00 77 1016.7
20191205174540 49 141 0.0 6.0 0.00 0.00 0.00 77 1016.6
20191205174040 49 128 0.0 6.0 0.00 0.00 0.00 77 1016.6
20191205173541 49 152 1.0 6.0 0.00 0.00 0.00 77 1016.5
20191205173040 49 137 2.0 6.0 0.00 0.00 0.00 77 1016.5
20191205172540 49 42 0.0 4.0 0.00 0.00 0.00 77 1016.6
20191205172041 49 142 0.0 4.0 0.00 0.00 0.00 77 1016.5
20191205171540 48 128 2.0 6.0 0.00 0.00 0.00 77 1016.5
20191205171041 48 110 3.0 6.0 0.00 0.00 0.00 78 1016.5
20191205170540 48 43 1.0 6.0 0.00 0.00 0.00 77 1016.5
20191205165041 48 109 1.0 6.0 0.00 0.00 0.00 77 1016.3
20191205164540 48 99 1.0 4.0 0.00 0.00 0.00 77 1016.2
20191205164040 47 107 0.0 4.0 0.00 0.00 0.00 77 1016.1
20191205163540 47 61 0.0 4.0 0.00 0.00 0.00 77 1016.1
20191205162041 47 28 1.0 5.0 0.00 0.00 0.00 77 1015.8
20191205161541 47 82 0.0 4.0 0.00 0.00 0.00 77 1015.7
20191205161040 47 1 0.0 4.0 0.00 0.00 0.00 78 1015.8
20191205160540 47 177 1.0 5.0 0.00 0.00 0.00 77 1015.7
20191205160040 48 133 1.0 5.0 0.00 0.00 0.00 77 1015.6
20191205155540 47 98 1.0 5.0 0.00 0.00 0.00 77 1015.6
20191205155041 48 61 0.0 5.0 0.00 0.00 0.00 77 1015.6
20191205154541 48 121 0.0 7.0 0.00 0.00 0.00 78 1015.5
20191205154040 48 123 1.0 7.0 0.00 0.00 0.00 77 1015.5
20191205153540 47 114 3.0 7.0 0.00 0.00 0.00 79 1015.4
20191205153040 47 112 2.0 6.0 0.00 0.00 0.00 77 1015.4
20191205152540 47 109 3.0 8.0 0.00 0.00 0.00 77 1015.3
20191205150540 47 142 4.0 9.0 0.00 0.00 0.00 78 1015.1
20191205150040 47 106 3.0 9.0 0.00 0.00 0.00 77 1014.9
20191205144040 46 116 2.0 8.0 0.00 0.00 0.00 79 1014.6
20191205143540 46 109 2.0 7.0 0.00 0.00 0.00 79 1014.5
20191205143040 46 64 2.0 7.0 0.00 0.00 0.00 77 1014.4
20191205142540 46 120 0.0 10.0 0.00 0.00 0.00 77 1014.4
20191205142041 46 113 1.0 10.0 0.00 0.00 0.00 78 1014.4
20191205141540 46 138 1.0 10.0 0.00 0.00 0.00 77 1014.3
20191205141040 46 127 1.0 8.0 0.00 0.00 0.00 79 1014.2
20191205140540 46 116 3.0 8.0 0.00 0.00 0.00 78 1014.1
20191205140041 46 296 2.0 10.0 0.00 0.00 0.00 80 1014.1
20191205135540 46 201 2.0 10.0 0.00 0.00 0.00 79 1013.9
20191205135041 46 114 2.0 10.0 0.00 0.00 0.00 79 1013.9
20191205133040 46 93 1.0 8.0 0.00 0.00 0.00 80 1013.7
20191205132540 46 141 2.0 8.0 0.00 0.00 0.00 80 1013.7
20191205132041 46 120 0.0 6.0 0.00 0.00 0.00 80 1013.8
20191205130540 46 145 2.0 6.0 0.00 0.00 0.00 80 1013.8
20191205130040 46 106 0.0 5.0 0.00 0.00 0.00 80 1013.9
20191205125540 46 191 0.0 7.0 0.00 0.00 0.00 80 1013.9
20191205125041 46 158 0.0 7.0 0.00 0.00 0.00 80 1013.8
20191205124540 46 142 1.0 7.0 0.00 0.00 0.00 80 1013.6
20191205124040 46 232 0.0 5.0 0.00 0.00 0.00 80 1013.7
20191205123540 46 60 0.0 5.0 0.00 0.00 0.00 80 1013.6
20191205123040 46 23 1.0 5.0 0.00 0.00 0.00 80 1013.7
20191205122540 46 138 0.0 3.0 0.00 0.00 0.00 80 1013.6
20191205122041 46 138 0.0 3.0 0.00 0.00 0.00 80 1013.7
20191205121540 46 159 0.0 3.0 0.00 0.00 0.00 80 1013.8
20191205121041 46 0 0.0 0.0 0.00 0.00 0.00 80 1013.8
20191205115542 46 0 0.0 0.0 0.00 0.00 0.00 80 1013.5
20191205115041 46 0 0.0 0.0 0.00 0.00 0.00 80 1013.5
20191205114540 46 151 0.0 4.0 0.00 0.00 0.00 80 1013.5
20191205114040 46 103 0.0 4.0 0.00 0.00 0.00 80 1013.6
20191205113540 46 124 1.0 4.0 0.00 0.00 0.00 80 1013.6
20191205113040 46 179 0.0 2.0 0.00 0.00 0.00 80 1013.6
20191205112540 46 117 0.0 6.0 0.00 0.00 0.00 80 1013.6
20191205112041 46 93 0.0 6.0 0.00 0.00 0.00 80 1013.5
20191205111540 46 156 0.0 6.0 0.00 0.00 0.00 80 1013.5
20191205111040 46 99 1.0 4.0 0.00 0.00 0.00 80 1013.5
20191205110540 46 0 0.0 0.0 0.00 0.00 0.00 79 1013.5
20191205110040 46 0 0.0 5.0 0.00 0.00 0.00 80 1013.6
20191205105540 46 0 0.0 5.0 0.00 0.00 0.00 80 1013.6
20191205105041 46 72 0.0 5.0 0.00 0.00 0.00 80 1013.5
20191205104541 46 78 2.0 5.0 0.00 0.00 0.00 81 1013.6
20191205104040 46 127 2.0 5.0 0.00 0.00 0.00 79 1013.5
20191205103540 46 64 0.0 6.0 0.00 0.00 0.00 79 1013.6
20191205102042 46 0 0.0 0.0 0.00 0.00 0.00 80 1013.5
20191205101540 46 0 0.0 0.0 0.00 0.00 0.00 80 1013.5
20191205101040 46 0 0.0 4.0 0.00 0.00 0.00 80 1013.5
20191205100540 46 0 0.0 4.0 0.00 0.00 0.00 80 1013.4
20191205100040 46 88 0.0 4.0 0.00 0.00 0.00 80 1013.4
20191205095540 46 134 1.0 4.0 0.00 0.00 0.00 80 1013.3
20191205095041 46 110 0.0 5.0 0.00 0.00 0.00 80 1013.2
20191205094540 46 126 0.0 5.0 0.00 0.00 0.00 80 1013.2
20191205094040 46 98 1.0 5.0 0.00 0.00 0.00 80 1013.2
20191205093540 46 140 1.0 3.0 0.00 0.00 0.00 79 1013.1
20191205093040 46 42 0.0 3.0 0.00 0.00 0.00 80 1013.1
20191205092540 46 0 0.0 6.0 0.00 0.00 0.00 80 1013.1
20191205092040 46 60 0.0 6.0 0.00 0.00 0.00 80 1013.1
20191205091540 46 145 1.0 6.0 0.00 0.00 0.00 79 1013.1
20191205090040 46 120 2.0 6.0 0.00 0.00 0.00 79 1013.0
20191205085540 46 92 0.0 5.0 0.00 0.00 0.00 79 1013.0
20191205084040 46 113 0.0 4.0 0.00 0.00 0.00 79 1012.9
20191205083540 46 134 0.0 6.0 0.00 0.00 0.00 79 1012.9
20191205083041 46 116 1.0 6.0 0.00 0.00 0.00 79 1012.8
20191205082540 46 163 1.0 6.0 0.00 0.00 0.00 78 1012.8
20191205082041 46 128 0.0 5.0 0.00 0.00 0.00 78 1012.7
20191205081539 46 123 1.0 6.0 0.00 0.00 0.00 78 1012.7
20191205081039 46 113 0.0 6.0 0.00 0.00 0.00 78 1012.7
20191205080540 46 121 0.0 6.0 0.00 0.00 0.00 78 1012.7
20191205080041 46 88 0.0 1.0 0.00 0.00 0.00 79 1012.6
20191205075539 46 117 0.0 7.0 0.00 0.00 0.00 77 1012.6
20191205075040 46 126 1.0 7.0 0.00 0.00 0.00 79 1012.6
20191205074540 46 113 2.0 7.0 0.00 0.00 0.00 77 1012.7
20191205072540 46 120 0.0 5.0 0.00 0.00 0.00 77 1012.5
20191205071039 47 131 2.0 5.0 0.00 0.00 0.00 79 1012.5
20191205070540 47 4 0.0 3.0 0.00 0.00 0.00 78 1012.5
20191205070040 47 105 1.0 3.0 0.00 0.00 0.00 79 1012.5
20191205065539 47 0 0.0 3.0 0.00 0.00 0.00 77 1012.4
20191205065040 47 0 0.0 3.0 0.00 0.00 0.00 77 1012.4
20191205064540 47 93 0.0 3.0 0.00 0.00 0.00 77 1012.4
20191205064039 47 0 0.0 0.0 0.00 0.00 0.00 77 1012.5
20191205063540 47 0 0.0 0.0 0.00 0.00 0.00 78 1012.5
20191205063039 48 0 0.0 0.0 0.00 0.00 0.00 77 1012.5
20191205062539 48 0 0.0 0.0 0.00 0.00 0.00 77 1012.3
20191205062041 48 0 0.0 0.0 0.00 0.00 0.00 79 1012.2
20191205061539 48 0 0.0 6.0 0.00 0.00 0.00 77 1012.1
20191205061039 48 0 0.0 6.0 0.00 0.00 0.00 80 1012.0
20191205060540 48 169 0.0 6.0 0.00 0.00 0.00 80 1011.9
20191205060039 48 333 0.0 5.0 0.00 0.00 0.00 79 1011.7
20191205055539 48 100 0.0 5.0 0.00 0.00 0.00 79 1011.6
20191205055041 47 0 0.0 4.0 0.00 0.00 0.00 79 1011.6
20191205054539 47 88 0.0 4.0 0.00 0.00 0.00 80 1011.5
20191205053039 47 0 0.0 0.0 0.00 0.00 0.00 77 1011.4
20191205052540 47 0 0.0 0.0 0.00 0.00 0.00 78 1011.4
20191205052040 47 0 0.0 0.0 0.00 0.00 0.00 77 1011.3
20191205051539 48 0 0.0 0.0 0.00 0.00 0.00 78 1011.3
20191205051039 48 0 0.0 0.0 0.00 0.00 0.00 77 1011.3
20191205050540 48 0 0.0 0.0 0.00 0.00 0.00 77 1011.2
20191205050039 48 0 0.0 0.0 0.00 0.00 0.00 77 1011.2
20191205045539 48 0 0.0 0.0 0.00 0.00 0.00 77 1011.2
20191205045041 48 0 0.0 1.0 0.00 0.00 0.00 77 1011.2
20191205044539 48 0 0.0 1.0 0.00 0.00 0.00 77 1011.2
20191205044039 48 112 0.0 1.0 0.00 0.00 0.00 77 1011.2
20191205043540 48 0 0.0 3.0 0.00 0.00 0.00 77 1011.2
20191205041540 49 0 0.0 4.0 0.00 0.00 0.00 77 1011.1
20191205041040 48 70 0.0 4.0 0.00 0.00 0.00 77 1011.1
20191205035041 48 0 0.0 3.0 0.00 0.00 0.00 77 1011.0
20191205034540 48 135 0.0 3.0 0.00 0.00 0.00 78 1010.9
20191205034040 48 0 0.0 0.0 0.00 0.00 0.00 77 1010.9
20191205033540 48 0 0.0 0.0 0.00 0.00 0.00 77 1011.0
20191205033039 49 0 0.0 0.0 0.00 0.00 0.00 77 1011.0
20191205032539 49 0 0.0 0.0 0.00 0.00 0.00 78 1010.9
20191205032041 49 0 0.0 0.0 0.00 0.00 0.00 77 1010.9
20191205031539 49 0 0.0 0.0 0.00 0.00 0.00 77 1010.9
20191205031039 49 0 0.0 0.0 0.00 0.00 0.00 77 1010.8
20191205030540 49 0 0.0 0.0 0.00 0.00 0.00 77 1010.8
20191205030039 49 0 0.0 0.0 0.00 0.00 0.00 77 1010.8
20191205025539 49 0 0.0 0.0 0.00 0.00 0.00 77 1010.8
20191205024039 50 0 0.0 0.0 0.00 0.00 0.00 77 1010.7
20191205023540 50 0 0.0 0.0 0.00 0.00 0.00 77 1010.7
20191205023039 50 0 0.0 0.0 0.00 0.00 0.00 77 1010.7
20191205022539 50 0 0.0 0.0 0.00 0.00 0.00 77 1010.6
20191205022040 50 0 0.0 0.0 0.00 0.00 0.00 77 1010.6
20191205021539 50 0 0.0 2.0 0.00 0.00 0.00 77 1010.6
20191205021039 50 0 0.0 2.0 0.00 0.00 0.00 77 1010.5
20191205020540 50 9 0.0 2.0 0.00 0.00 0.00 77 1010.6
20191205020039 50 0 0.0 0.0 0.00 0.00 0.00 77 1010.5
20191205015539 50 0 0.0 0.0 0.00 0.00 0.00 77 1010.5
20191205015040 50 0 0.0 0.0 0.00 0.00 0.00 77 1010.5
20191205014539 50 0 0.0 0.0 0.00 0.00 0.00 77 1010.5
20191205014039 50 0 0.0 0.0 0.00 0.00 0.00 77 1010.5
20191205013540 50 0 0.0 0.0 0.00 0.00 0.00 77 1010.5
20191205013039 50 0 0.0 0.0 0.00 0.00 0.00 77 1010.5
20191205012539 50 0 0.0 0.0 0.00 0.00 0.00 77 1010.4
20191205012040 51 0 0.0 0.0 0.00 0.00 0.00 77 1010.4
20191205010540 51 0 0.0 0.0 0.00 0.00 0.00 77 1010.6
20191205010039 51 0 0.0 0.0 0.00 0.00 0.00 77 1010.7
20191205005539 51 0 0.0 0.0 0.00 0.00 0.00 77 1010.6
20191205005040 51 0 0.0 0.0 0.00 0.00 0.00 77 1010.6
20191205004539 51 0 0.0 0.0 0.00 0.00 0.00 77 1010.6
20191205004039 51 0 0.0 0.0 0.00 0.00 0.00 77 1010.7
20191205003539 51 0 0.0 0.0 0.00 0.00 0.00 77 1010.8
20191205003039 51 0 0.0 0.0 0.00 0.00 0.00 78 1010.7
20191205002539 51 0 0.0 0.0 0.00 0.00 0.00 78 1010.7
20191205002040 52 0 0.0 0.0 0.00 0.00 0.00 77 1010.7
20191205001539 52 0 0.0 0.0 0.00 0.00 0.00 77 1010.9
20191205001039 52 0 0.0 0.0 0.00 0.00 0.00 77 1010.8
20191205000539 52 0 0.0 0.0 0.00 0.00 0.00 77 1010.8